Regional Weather Roundup
Issued by NWS Sioux Falls, SD

Home | Current Version | Previous Version | Graphics & Text | Print | Product List | Glossary On
Versions: 1 2 3 4 5 6 7 8 9 10 11 12 13 14 15 16 17 18 19 20 21 22 23 24 25 26 27 28 29 30 31 32 33 34 35 36 37 38 39 40 41 42 43 44 45 46 47 48 49 50
000
ASUS43 KFSD 232302
RWRFSD

WEATHER ROUNDUP FOR SE SOUTH DAKOTA/SW MINNESOTA/NW IOWA
NATIONAL WEATHER SERVICE SIOUX FALLS SD
600 PM CDT FRI JUN 23 2017

NOTE: "FAIR" INDICATES FEW OR NO CLOUDS BELOW 12,000 FEET WITH NO
SIGNIFICANT WEATHER AND OR OBSTRUCTIONS TO VISIBILITY.


SDZ038>040-050-052>070-240000-
SOUTHEAST SOUTH DAKOTA

CITY           SKY/WX    TMP DP  RH WIND       PRES   REMARKS
BROOKINGS      MOSUNNY   65  46  50 NW18      29.99S
CHAMBERLAIN    SUNNY     73  35  25 NW20G25   30.06S
HURON          SUNNY     70  38  31 NW20G29   30.02R
MADISON        FAIR      64  39  39 NW25G31   30.01R
MITCHELL       SUNNY     71  38  29 NW18G28   30.03R
SIOUX FALLS    MOSUNNY   69  47  45 NW17G28   29.99S
WINNER         FAIR      74  31  20 NW24G36   30.08R
YANKTON        MOSUNNY   71  42  35 NW15G23   30.01S
$$

MNZ071-072-080-081-089-090-097-098-240000-
SOUTHWEST MINNESOTA

CITY           SKY/WX    TMP DP  RH WIND       PRES   REMARKS
FAIRMONT       PTSUNNY   69  52  54 NW18G29   29.92R
JACKSON        PTSUNNY   64  48  55 NW16G25   29.95S
MARSHALL       CLOUDY    64  49  57 NW21G30   29.96R
MONTEVIDEO     CLOUDY    66  50  55 N15       29.93S
PIPESTONE      MOSUNNY   66  46  48 NW17G26   29.99S
REDWOOD FALLS  CLOUDY    66  49  54 NW20G25   29.92R
TRACY          CLOUDY    65  51  59 NW15      29.97S
WINDOM         MOSUNNY   66  48  52 NW22      29.95S
WORTHINGTON    CLOUDY    64  50  60 NW20G30   29.98R
$$

IAZ001>003-012>014-020>022-031-032-NEZ013-014-SDZ071-240000-
NORTHWEST IOWA

CITY           SKY/WX    TMP DP  RH WIND       PRES   REMARKS
CHEROKEE       PTSUNNY   67  50  54 NW17G24   29.98R
DENISON        MOSUNNY   72  48  43 NW16G24   29.98F
ESTHERVILLE    PTSUNNY   67  52  58 NW20G25   29.94R
LE MARS        PTSUNNY   70  48  46 NW17G25   30.00S
ORANGE CITY    PTSUNNY   66  50  55 NW15G23   29.99S
SHELDON        PTSUNNY   66  48  52 NW15G25   29.97R
SIOUX CITY     CLOUDY    70  49  47 NW20G25   29.98S
SPENCER        CLOUDY    70  49  47 NW20G25   29.96R
STORM LAKE     PTSUNNY   70  50  49 NW17G23   29.97S
$$

ABBREVIATIONS USED IN REMARKS
   TC - TEMPERATURE IN CELSIUS
  WCI - WIND CHILL INDEX
   HX - HEAT INDEX
  VSB - VISIBILITY





USA.gov is the U.S. government's official web portal to all federal, state and local government web resources and services.